Flag for Belgium Weather past 2 weeks in Eupen, Belgium

Now
73 °F

Clear.


Feels Like: 73 °F
Forecast: 63 / 86 °F
Wind: 2 mph from Northwest

Location: Spa / La Sauveniere

Current Time: Jul 2, 2015 at 11:47:47 PM

Latest Report: Jul 2, 2015 at 10:00 PM


Visibility: 8 mi

Pressure: 30.14 "Hg

Humidity: 80%

Dew point: 67 °F

Location of EupenLocation

Historic Weather in Eupen — Graph

°F

Eupen temperature yesterday

Maximum temperature yesterday: 89 °F (at 5:00 PM)
Minimum temperature yesterday: 66 °F (at 7:00 AM)
Average temperature yesterday: 77 °F

Past Weeks' High & Low Weather Summary

 TemperatureHumidityPressure
High94 °F (Jul 2, 5:00 PM)98% (Jun 18, 8:00 AM)30.24 "Hg (Jun 18, 8:00 AM)
Low44 °F (Jun 19, 2:00 AM)29% (Jun 30, 6:00 PM)29.73 "Hg (Jun 22, 9:00 PM)
Average60 °F72%30.10 "Hg
* Reported Jun 17 10:00 PM — Jul 2 10:00 PM, Eupen, Weather by CustomWeather, © 2015

Note: Actual official high and low records may vary slightly from our data, if they occured in-between our weather recording intervals... More about our weather records

Advertising

Eupen weather history for previous 24 hours

 ConditionsComfort  
Time TempWeatherWind HumidityBarometerVisibility
10:00 PM
Thu, Jul 2
73 °FClear.2 mph80%30.14 "Hg8 mi
9:00 PM76 °FPassing clouds.3 mph78%30.11 "Hg9 mi
8:00 PM81 °FPassing clouds.2 mph68%30.07 "Hg11 mi
7:00 PM90 °FSunny.2 mph40%30.03 "Hg17 mi
6:00 PM91 °FSunny.5 mph36%30.02 "Hg22 mi
5:00 PM94 °FSunny.3 mph31%30.01 "Hg19 mi
4:00 PM92 °FSunny.6 mph29%30.01 "Hg18 mi
3:00 PM91 °FSunny.7 mph34%30.00 "Hg19 mi
2:00 PM91 °FSunny.6 mph36%30.02 "Hg22 mi
1:00 PM89 °FSunny.6 mph38%30.03 "Hg19 mi
12:00 PM86 °FSunny.6 mph41%30.03 "Hg19 mi
11:00 AM83 °FSunny.8 mph48%30.03 "Hg16 mi
10:00 AM80 °FSunny.7 mph52%30.05 "Hg9 mi
9:00 AM78 °FSunny.8 mph54%30.05 "Hg18 mi
8:00 AM75 °FSunny.8 mph55%30.06 "Hg22 mi
7:00 AM74 °FSunny.8 mph54%30.04 "Hg22 mi
6:00 AM74 °FSunny.8 mph53%30.04 "Hg28 mi
5:00 AM74 °FClear.8 mph51%30.04 "Hg28 mi
4:00 AM74 °FClear.8 mph49%30.04 "Hg28 mi
3:00 AM75 °FClear.8 mph47%30.05 "Hg28 mi
2:00 AM74 °FClear.7 mph48%30.05 "Hg28 mi
1:00 AM75 °FClear.7 mph46%30.04 "Hg28 mi
12:00 AM76 °FClear.7 mph45%30.03 "Hg25 mi
Weather by CustomWeather, © 2015

See weather overviewHow to use our weather pages